Hourly Weather Pazardzhik

Today, 25 September, Friday

Time Temperature Precipitation Wind Pressure Humidity
00:00 +19°C° 0 mm 2 mps 740 mmHg 71%
01:00 +18°C° 0 mm 2 mps 740 mmHg 71%
02:00 +18°C° 0 mm 2 mps 740 mmHg 74%
03:00 +18°C° 0 mm 2 mps 740 mmHg 74%
04:00 +18°C° 0 mm 2 mps 740 mmHg 74%
05:00 +18°C° 0 mm 2 mps 740 mmHg 74%
06:00 +20°C° 0 mm 1 mps 740 mmHg 68%
07:00 +22°C° 0 mm 1 mps 740 mmHg 62%
08:00 +23°C° 0 mm 1 mps 740 mmHg 55%
09:00 +25°C° 0 mm 1 mps 739 mmHg 49%
10:00 +28°C° 0 mm 1 mps 739 mmHg 43%
11:00 +30°C° 0 mm 1 mps 739 mmHg 37%
12:00 +31°C° 0 mm 2 mps 738 mmHg 35%
13:00 +31°C° 0 mm 2 mps 737 mmHg 32%
14:00 +32°C° 0 mm 2 mps 737 mmHg 30%
15:00 +32°C° 0 mm 2 mps 736 mmHg 31%
16:00 +31°C° 0 mm 3 mps 736 mmHg 33%
17:00 +30°C° 0 mm 3 mps 735 mmHg 34%
18:00 +28°C° 0 mm 2 mps 735 mmHg 40%
19:00 +26°C° 0 mm 2 mps 735 mmHg 45%
20:00 +24°C° 0 mm 2 mps 735 mmHg 51%
21:00 +23°C° 0 mm 2 mps 735 mmHg 54%
22:00 +23°C° 0 mm 2 mps 735 mmHg 57%
23:00 +21°C° 0 mm 2 mps 734 mmHg 60%

Tomorrow, 26 September, Saturday

Time Temperature Precipitation Wind Pressure Humidity
00:00 +21°C° 0 mm 2 mps 734 mmHg 63%
01:00 +20°C° 0 mm 2 mps 733 mmHg 67%
02:00 +19°C° 0 mm 2 mps 733 mmHg 70%
03:00 +19°C° 0 mm 2 mps 732 mmHg 72%
04:00 +19°C° 0 mm 2 mps 732 mmHg 73%
05:00 +19°C° 0 mm 2 mps 732 mmHg 74%
06:00 +20°C° 0 mm 2 mps 731 mmHg 71%
07:00 +21°C° 0 mm 2 mps 731 mmHg 67%
08:00 +22°C° 0 mm 3 mps 730 mmHg 63%
09:00 +24°C° 0.1 mm 2 mps 730 mmHg 60%
10:00 +25°C° 0.1 mm 2 mps 731 mmHg 56%
11:00 +26°C° 0.1 mm 1 mps 731 mmHg 53%
12:00 +26°C° 0.7 mm 2 mps 730 mmHg 54%
13:00 +26°C° 0.7 mm 2 mps 730 mmHg 55%
14:00 +26°C° 0.7 mm 3 mps 729 mmHg 56%
15:00 +26°C° 0.5 mm 3 mps 729 mmHg 58%
16:00 +25°C° 0.5 mm 3 mps 729 mmHg 61%
17:00 +25°C° 0.5 mm 3 mps 728 mmHg 63%
18:00 +22°C° 0.5 mm 3 mps 729 mmHg 68%
19:00 +20°C° 0.5 mm 3 mps 729 mmHg 73%
20:00 +17°C° 0.5 mm 3 mps 730 mmHg 78%
21:00 +17°C° 0 mm 3 mps 731 mmHg 77%
22:00 +16°C° 0 mm 3 mps 731 mmHg 76%
23:00 +15°C° 0 mm 2 mps 732 mmHg 76%

Day after tomorrow, 27 September, Sunday

Time Temperature Precipitation Wind Pressure Humidity
00:00 +14°C° 0 mm 2 mps 732 mmHg 75%
01:00 +14°C° 0 mm 2 mps 733 mmHg 75%
02:00 +13°C° 0 mm 2 mps 733 mmHg 74%
03:00 +13°C° 0 mm 2 mps 734 mmHg 74%
04:00 +13°C° 0 mm 2 mps 734 mmHg 74%
05:00 +12°C° 0 mm 2 mps 735 mmHg 75%
06:00 +14°C° 0 mm 2 mps 735 mmHg 69%
07:00 +15°C° 0 mm 2 mps 736 mmHg 64%
08:00 +18°C° 0 mm 1 mps 737 mmHg 58%
09:00 +19°C° 0 mm 2 mps 737 mmHg 49%
10:00 +23°C° 0 mm 2 mps 738 mmHg 40%
11:00 +25°C° 0 mm 2 mps 738 mmHg 31%
12:00 +26°C° 0 mm 2 mps 738 mmHg 29%
13:00 +27°C° 0 mm 2 mps 738 mmHg 27%
14:00 +28°C° 0 mm 3 mps 738 mmHg 25%
15:00 +27°C° 0 mm 2 mps 739 mmHg 26%
16:00 +27°C° 0 mm 2 mps 739 mmHg 28%
17:00 +27°C° 0 mm 2 mps 739 mmHg 29%
18:00 +24°C° 0 mm 2 mps 739 mmHg 36%
19:00 +21°C° 0 mm 2 mps 740 mmHg 42%
20:00 +18°C° 0 mm 2 mps 740 mmHg 49%
21:00 +18°C° 0 mm 2 mps 740 mmHg 50%
22:00 +18°C° 0 mm 2 mps 741 mmHg 51%
23:00 +18°C° 0 mm 1 mps 741 mmHg 52%

28 September, Monday

Time Temperature Precipitation Wind Pressure Humidity
00:00 +18°C° 0 mm 1 mps 741 mmHg 55%
01:00 +16°C° 0 mm 1 mps 740 mmHg 57%
02:00 +16°C° 0 mm 1 mps 740 mmHg 60%
03:00 +15°C° 0 mm 1 mps 740 mmHg 64%
04:00 +15°C° 0 mm 1 mps 740 mmHg 67%
05:00 +15°C° 0 mm 1 mps 740 mmHg 71%
06:00 +16°C° 0 mm 1 mps 740 mmHg 68%
07:00 +18°C° 0 mm 1 mps 740 mmHg 64%
08:00 +20°C° 0 mm 1 mps 740 mmHg 60%
09:00 +22°C° 0 mm 1 mps 740 mmHg 54%
10:00 +24°C° 0 mm 2 mps 741 mmHg 49%
11:00 +26°C° 0 mm 2 mps 741 mmHg 43%
12:00 +27°C° 0 mm 2 mps 740 mmHg 41%
13:00 +28°C° 0 mm 2 mps 740 mmHg 39%
14:00 +29°C° 0 mm 3 mps 740 mmHg 36%
15:00 +29°C° 0 mm 3 mps 740 mmHg 38%
16:00 +28°C° 0 mm 4 mps 739 mmHg 40%
17:00 +27°C° 0 mm 4 mps 739 mmHg 42%
18:00 +25°C° 0 mm 4 mps 739 mmHg 48%
19:00 +22°C° 0 mm 3 mps 739 mmHg 55%
20:00 +20°C° 0 mm 3 mps 740 mmHg 61%
21:00 +20°C° 0 mm 2 mps 740 mmHg 64%
22:00 +19°C° 0 mm 2 mps 740 mmHg 67%
23:00 +18°C° 0 mm 2 mps 740 mmHg 70%

29 September, Tuesday

Time Temperature Precipitation Wind Pressure Humidity
00:00 +18°C° 0 mm 2 mps 739 mmHg 71%
01:00 +17°C° 0 mm 2 mps 739 mmHg 72%
02:00 +17°C° 0 mm 2 mps 739 mmHg 73%
03:00 +17°C° 0.1 mm 2 mps 739 mmHg 72%
04:00 +17°C° 0.1 mm 2 mps 739 mmHg 71%
05:00 +17°C° 0.1 mm 2 mps 739 mmHg 69%
06:00 +18°C° 0 mm 2 mps 739 mmHg 67%
07:00 +19°C° 0 mm 2 mps 739 mmHg 64%
08:00 +19°C° 0 mm 3 mps 740 mmHg 61%
09:00 +21°C° 0 mm 3 mps 740 mmHg 54%
10:00 +22°C° 0 mm 4 mps 740 mmHg 47%
11:00 +23°C° 0 mm 4 mps 740 mmHg 40%
12:00 +23°C° 0.3 mm 4 mps 740 mmHg 42%
13:00 +23°C° 0.3 mm 4 mps 740 mmHg 44%
14:00 +22°C° 0.3 mm 4 mps 740 mmHg 46%
15:00 +22°C° 0 mm 5 mps 740 mmHg 44%
16:00 +22°C° 0 mm 5 mps 739 mmHg 43%
17:00 +22°C° 0 mm 5 mps 739 mmHg 42%
18:00 +20°C° 0 mm 4 mps 740 mmHg 47%
19:00 +18°C° 0 mm 3 mps 740 mmHg 53%
20:00 +16°C° 0 mm 2 mps 740 mmHg 59%
21:00 +16°C° 0 mm 2 mps 740 mmHg 61%
22:00 +15°C° 0 mm 2 mps 740 mmHg 62%
23:00 +15°C° 0 mm 2 mps 740 mmHg 64%

30 September, Wednesday

Time Temperature Precipitation Wind Pressure Humidity
00:00 +15°C° 0 mm 2 mps 740 mmHg 64%
01:00 +15°C° 0 mm 2 mps 740 mmHg 64%
02:00 +15°C° 0 mm 2 mps 740 mmHg 65%
03:00 +15°C° 0 mm 2 mps 740 mmHg 65%
04:00 +15°C° 0 mm 2 mps 740 mmHg 65%
05:00 +15°C° 0 mm 2 mps 740 mmHg 66%
06:00 +16°C° 0 mm 3 mps 740 mmHg 61%
07:00 +17°C° 0 mm 4 mps 740 mmHg 57%
08:00 +17°C° 0 mm 5 mps 740 mmHg 53%
09:00 +19°C° 0 mm 5 mps 739 mmHg 49%
10:00 +21°C° 0 mm 5 mps 739 mmHg 44%
11:00 +22°C° 0 mm 6 mps 739 mmHg 39%
12:00 +22°C° 0 mm 6 mps 739 mmHg 37%
13:00 +23°C° 0 mm 6 mps 738 mmHg 36%
14:00 +23°C° 0 mm 6 mps 738 mmHg 34%
15:00 +23°C° 0 mm 6 mps 738 mmHg 36%
16:00 +22°C° 0 mm 6 mps 737 mmHg 39%
17:00 +21°C° 0 mm 6 mps 737 mmHg 42%
18:00 +19°C° 0 mm 5 mps 737 mmHg 48%
19:00 +17°C° 0 mm 4 mps 738 mmHg 54%
20:00 +16°C° 0 mm 3 mps 738 mmHg 60%
21:00 +14°C° 0 mm 3 mps 738 mmHg 62%
22:00 +13°C° 0 mm 3 mps 738 mmHg 64%
23:00 +14°C° 0 mm 2 mps 738 mmHg 66%
Show more